FW0527 Weather Reports


time (UTC)temp
C
wind
direction
speed
KPH
gust
KPH
rain 1hr
cm
rain 24hr
cm
rain mn
cm
humidity
%
barometer
mb
20260831021528 25 299 0.0 0.0 0.00 0.00 0.00 33 1009.6
20260831020016 25 295 0.0 0.0 0.00 0.00 0.00 32 1009.5
20260831014515 25 304 0.0 0.0 0.00 0.00 0.00 30 1009.6
20260831013023 26 301 0.0 0.0 0.00 0.00 0.00 30 1009.5
20260831011515 26 323 0.0 1.6 0.00 0.00 0.00 29 1009.6
20260831010016 27 302 0.0 1.6 0.00 0.00 0.00 27 1009.5
20260831004514 27 230 0.0 19.3 0.00 0.00 0.00 26 1009.6
20260831003012 27 271 0.0 16.1 0.00 0.00 0.00 25 1009.5
20260831001510 28 241 1.6 12.9 0.00 0.00 0.00 26 1009.5
20260831000017 28 281 0.0 17.7 0.00 0.00 0.00 26 1009.4
20260830234508 28 284 1.6 16.1 0.00 0.00 0.00 26 1009.3
20260830233011 29 313 0.0 17.7 0.00 0.00 0.00 27 1009.6
20260830231505 29 323 0.0 16.1 0.00 0.00 0.00 28 1009.6
20260830230004 30 165 0.0 3.2 0.00 0.00 0.00 28 1009.5
20260830224503 30 316 1.6 17.7 0.00 0.00 0.00 28 1009.6
20260830223000 30 291 3.2 16.1 0.00 0.00 0.00 28 1009.6
20260830221609 31 275 1.6 17.7 0.00 0.00 0.00 28 1009.6
20260830214602 32 270 0.0 20.9 0.00 0.00 0.00 25 1009.7
20260830213055 32 277 0.0 17.7 0.00 0.00 0.00 24 1010.0
20260830211654 33 13 0.0 17.7 0.00 0.00 0.00 24 1010.1
20260830210059 33 262 0.0 20.9 0.00 0.00 0.00 25 1010.2
20260830204553 33 288 1.6 17.7 0.00 0.00 0.00 25 1010.5
20260830203048 33 329 1.6 20.9 0.00 0.00 0.00 25 1010.6
20260830201545 33 292 0.0 14.5 0.00 0.00 0.00 25 1010.5
20260830200042 33 293 0.0 19.3 0.00 0.00 0.00 25 1010.7
20260830194541 33 345 1.6 14.5 0.00 0.00 0.00 25 1010.6
20260830193036 33 290 1.6 22.5 0.00 0.00 0.00 25 1010.7
20260830191533 32 292 1.6 17.7 0.00 0.00 0.00 24 1010.8
20260830190032 32 326 0.0 24.1 0.00 0.00 0.00 23 1010.8
20260830184529 32 318 0.0 19.3 0.00 0.00 0.00 23 1011.0
20260830183027 32 261 0.0 14.5 0.00 0.00 0.00 23 1011.0
20260830181524 32 321 1.6 16.1 0.00 0.00 0.00 23 1011.2
20260830180022 32 321 3.2 17.7 0.00 0.00 0.00 24 1011.1
20260830174519 31 275 1.6 17.7 0.00 0.00 0.00 25 1011.0
20260830173015 31 309 4.8 17.7 0.00 0.00 0.00 24 1010.9
20260830171511 30 302 0.0 4.8 0.00 0.00 0.00 25 1010.8
20260830170008 30 293 0.0 9.7 0.00 0.00 0.00 26 1010.8
20260830164503 28 355 0.0 0.0 0.00 0.00 0.00 28 1010.7
20260830163100 28 311 0.0 1.6 0.00 0.00 0.00 31 1010.7
20260830161609 27 303 0.0 17.7 0.00 0.00 0.00 32 1010.8
20260830160051 25 308 0.0 0.0 0.00 0.00 0.00 36 1010.8
20260830154546 23 290 0.0 12.9 0.00 0.00 0.00 41 1010.7
20260830153041 21 118 0.0 0.0 0.00 0.00 0.00 51 1010.9
20260830151541 19 118 0.0 0.0 0.00 0.00 0.00 56 1010.8
20260830150033 18 117 0.0 0.0 0.00 0.00 0.00 60 1010.7
20260830144531 17 117 0.0 0.0 0.00 0.00 0.00 63 1010.6
20260830143034 17 117 0.0 0.0 0.00 0.00 0.00 64 1010.8
20260830141538 16 117 0.0 0.0 0.00 0.00 0.00 65 1010.6
20260830140028 16 116 0.0 0.0 0.00 0.00 0.00 65 1010.5
20260830134537 16 120 0.0 0.0 0.00 0.00 0.00 65 1010.4
20260830133026 16 120 0.0 0.0 0.00 0.00 0.00 65 1010.3
20260830131525 15 120 0.0 0.0 0.00 0.00 0.00 66 1010.1
20260830130028 15 120 0.0 0.0 0.00 0.00 0.00 66 1010.1
20260830124524 15 120 0.0 0.0 0.00 0.00 0.00 67 1010.0
20260830123022 15 120 0.0 0.0 0.00 0.00 0.00 67 1010.0
20260830121525 15 120 0.0 0.0 0.00 0.00 0.00 67 1009.9
20260830120020 15 120 0.0 0.0 0.00 0.00 0.00 67 1009.8
20260830114519 15 120 0.0 0.0 0.00 0.00 0.00 67 1010.0
20260830113019 16 120 0.0 0.0 0.00 0.00 0.00 67 1009.8
20260830111517 16 120 0.0 0.0 0.00 0.00 0.00 67 1009.8
20260830110020 16 120 0.0 0.0 0.00 0.00 0.00 67 1009.7
20260830104514 16 120 0.0 0.0 0.00 0.00 0.00 66 1009.8
20260830103014 16 120 0.0 0.0 0.00 0.00 0.00 65 1009.7
20260830101511 16 120 0.0 0.0 0.00 0.00 0.00 64 1009.7
20260830100013 16 120 0.0 0.0 0.00 0.00 0.00 63 1009.7
20260830094516 16 120 0.0 0.0 0.00 0.00 0.00 63 1009.7
20260830093006 16 120 0.0 0.0 0.00 0.00 0.00 62 1009.6
20260830091504 17 120 0.0 0.0 0.00 0.00 0.00 63 1009.6
20260830090004 17 120 0.0 0.0 0.00 0.00 0.00 63 1009.6
20260830084501 17 120 0.0 0.0 0.00 0.00 0.00 63 1009.7
20260830083104 17 120 0.0 0.0 0.00 0.00 0.00 64 1009.8
20260830081608 17 120 0.0 0.0 0.00 0.00 0.00 65 1009.9
20260830080057 17 305 0.0 0.0 0.00 0.00 0.00 63 1009.8
20260830074608 17 305 0.0 0.0 0.00 0.00 0.00 65 1010.0
20260830073055 17 305 0.0 0.0 0.00 0.00 0.00 64 1009.9
20260830071556 17 305 0.0 0.0 0.00 0.00 0.00 67 1009.9
20260830070047 17 305 0.0 0.0 0.00 0.00 0.00 68 1009.9
20260830064546 17 304 0.0 0.0 0.00 0.00 0.00 69 1009.9
20260830063045 17 304 0.0 0.0 0.00 0.00 0.00 68 1009.9
20260830061544 17 304 0.0 0.0 0.00 0.00 0.00 67 1009.7
20260830060052 18 304 0.0 0.0 0.00 0.00 0.00 67 1009.9
20260830054552 18 304 0.0 0.0 0.00 0.00 0.00 65 1009.9
20260830053047 18 304 0.0 0.0 0.00 0.00 0.00 64 1010.0
20260830051542 18 304 0.0 0.0 0.00 0.00 0.00 63 1010.2
20260830050041 19 304 0.0 0.0 0.00 0.00 0.00 62 1010.0
20260830044544 20 304 0.0 0.0 0.00 0.00 0.00 61 1010.0
20260830043040 20 304 0.0 0.0 0.00 0.00 0.00 59 1010.1
20260830041550 20 304 0.0 0.0 0.00 0.00 0.00 57 1010.2
20260830040042 21 304 0.0 0.0 0.00 0.00 0.00 56 1009.9
20260830034539 22 304 0.0 0.0 0.00 0.00 0.00 53 1009.6
20260830033038 22 304 0.0 0.0 0.00 0.00 0.00 52 1009.5
20260830031538 23 304 0.0 0.0 0.00 0.00 0.00 51 1009.4
20260830030103 23 304 0.0 0.0 0.00 0.00 0.00 49 1008.7
20260830024537 24 304 0.0 0.0 0.00 0.00 0.00 48 1008.7
20260830023037 25 315 0.0 0.0 0.00 0.00 0.00 47 1008.7